• în România
  • Lista ţărilor
  • Pe 7 zile
  • Temperatura apei
  • Hartă satelitară
  • Meteo pe hartă
  • Widget-uri
  • user-avatar
    Intrare

    Meteo pe oră la Bruges

    Astăzi, 17 Octombrie, Marţi

    Timp Temperatura Precipitaţii Vânt Presiune Umiditate
    00:00 +15°C° 0 mm 6 m/s 765 mmHg 76%
    01:00 +15°C° 0 mm 6 m/s 765 mmHg 75%
    02:00 +14°C° 0 mm 6 m/s 765 mmHg 73%
    03:00 +14°C° 0 mm 6 m/s 765 mmHg 72%
    04:00 +13°C° 0 mm 6 m/s 765 mmHg 74%
    05:00 +13°C° 0 mm 5 m/s 765 mmHg 76%
    06:00 +12°C° 0 mm 4 m/s 765 mmHg 77%
    07:00 +13°C° 0 mm 4 m/s 765 mmHg 74%
    08:00 +14°C° 0 mm 5 m/s 765 mmHg 71%
    09:00 +15°C° 0 mm 5 m/s 765 mmHg 68%
    10:00 +17°C° 0 mm 4 m/s 765 mmHg 65%
    11:00 +18°C° 0 mm 4 m/s 765 mmHg 61%
    12:00 +19°C° 0 mm 4 m/s 764 mmHg 58%
    13:00 +19°C° 0 mm 3 m/s 764 mmHg 58%
    14:00 +19°C° 0 mm 2 m/s 763 mmHg 58%
    15:00 +20°C° 0 mm 2 m/s 763 mmHg 59%
    16:00 +18°C° 0 mm 2 m/s 763 mmHg 64%
    17:00 +17°C° 0 mm 2 m/s 763 mmHg 69%
    18:00 +15°C° 0 mm 2 m/s 763 mmHg 75%
    19:00 +15°C° 0 mm 2 m/s 762 mmHg 75%
    20:00 +15°C° 0 mm 2 m/s 762 mmHg 75%
    21:00 +15°C° 0 mm 2 m/s 762 mmHg 76%
    22:00 +14°C° 0 mm 3 m/s 762 mmHg 76%
    23:00 +14°C° 0 mm 3 m/s 761 mmHg 77%

    Mâine, 18 Octombrie, Miercuri

    Timp Temperatura Precipitaţii Vânt Presiune Umiditate
    00:00 +14°C° 0 mm 3 m/s 761 mmHg 78%
    01:00 +13°C° 0 mm 3 m/s 760 mmHg 81%
    02:00 +13°C° 0 mm 3 m/s 760 mmHg 85%
    03:00 +13°C° 0 mm 4 m/s 760 mmHg 89%
    04:00 +13°C° 0 mm 4 m/s 759 mmHg 89%
    05:00 +13°C° 0 mm 4 m/s 759 mmHg 90%
    06:00 +12°C° 0 mm 4 m/s 759 mmHg 91%
    07:00 +14°C° 0 mm 4 m/s 759 mmHg 86%
    08:00 +15°C° 0 mm 4 m/s 759 mmHg 81%
    09:00 +17°C° 0 mm 4 m/s 759 mmHg 76%
    10:00 +18°C° 0 mm 4 m/s 759 mmHg 73%
    11:00 +19°C° 0 mm 4 m/s 758 mmHg 70%
    12:00 +20°C° 0 mm 3 m/s 758 mmHg 66%
    13:00 +21°C° 0 mm 3 m/s 758 mmHg 68%
    14:00 +21°C° 0 mm 3 m/s 758 mmHg 69%
    15:00 +21°C° 0 mm 2 m/s 758 mmHg 70%
    16:00 +20°C° 0,1 mm 2 m/s 758 mmHg 75%
    17:00 +19°C° 0,1 mm 1 m/s 758 mmHg 80%
    18:00 +18°C° 0,1 mm 1 m/s 758 mmHg 85%
    19:00 +18°C° 0 mm 1 m/s 758 mmHg 86%
    20:00 +17°C° 0 mm 2 m/s 758 mmHg 87%
    21:00 +16°C° 0 mm 2 m/s 758 mmHg 88%
    22:00 +16°C° 0 mm 2 m/s 758 mmHg 87%
    23:00 +16°C° 0 mm 3 m/s 757 mmHg 87%

    Poimâine, 19 Octombrie, Joi

    Timp Temperatura Precipitaţii Vânt Presiune Umiditate
    00:00 +14°C° 0 mm 3 m/s 757 mmHg 86%
    01:00 +14°C° 0 mm 3 m/s 757 mmHg 85%
    02:00 +13°C° 0 mm 3 m/s 757 mmHg 84%
    03:00 +13°C° 0 mm 3 m/s 757 mmHg 82%
    04:00 +13°C° 0 mm 3 m/s 756 mmHg 84%
    05:00 +12°C° 0 mm 4 m/s 756 mmHg 85%
    06:00 +12°C° 0 mm 4 m/s 756 mmHg 87%
    07:00 +13°C° 0 mm 4 m/s 756 mmHg 83%
    08:00 +14°C° 0 mm 5 m/s 756 mmHg 79%
    09:00 +16°C° 0 mm 5 m/s 756 mmHg 75%
    10:00 +17°C° 0 mm 5 m/s 756 mmHg 72%
    11:00 +19°C° 0 mm 5 m/s 755 mmHg 69%
    12:00 +20°C° 0 mm 5 m/s 755 mmHg 66%
    13:00 +21°C° 0 mm 5 m/s 755 mmHg 67%
    14:00 +21°C° 0 mm 5 m/s 755 mmHg 68%
    15:00 +21°C° 0 mm 5 m/s 754 mmHg 69%
    16:00 +20°C° 0,1 mm 5 m/s 754 mmHg 72%
    17:00 +19°C° 0,1 mm 5 m/s 754 mmHg 74%
    18:00 +17°C° 0,1 mm 6 m/s 754 mmHg 77%
    19:00 +17°C° 0,2 mm 6 m/s 754 mmHg 78%
    20:00 +17°C° 0,2 mm 6 m/s 755 mmHg 80%
    21:00 +17°C° 0,2 mm 6 m/s 755 mmHg 81%
    22:00 +16°C° 0 mm 7 m/s 755 mmHg 81%
    23:00 +16°C° 0 mm 7 m/s 754 mmHg 82%

    20 Octombrie, Vineri

    Timp Temperatura Precipitaţii Vânt Presiune Umiditate
    00:00 +16°C° 0 mm 8 m/s 754 mmHg 82%
    01:00 +15°C° 0,4 mm 8 m/s 754 mmHg 81%
    02:00 +15°C° 0,4 mm 9 m/s 754 mmHg 80%
    03:00 +14°C° 0,4 mm 10 m/s 754 mmHg 79%
    04:00 +14°C° 0,4 mm 10 m/s 754 mmHg 80%
    05:00 +14°C° 0,4 mm 10 m/s 754 mmHg 81%
    06:00 +14°C° 0,4 mm 10 m/s 754 mmHg 81%
    07:00 +15°C° 0,1 mm 9 m/s 755 mmHg 79%
    08:00 +15°C° 0,1 mm 9 m/s 756 mmHg 78%
    09:00 +16°C° 0,1 mm 9 m/s 757 mmHg 76%
    10:00 +16°C° 0 mm 8 m/s 757 mmHg 72%
    11:00 +17°C° 0 mm 8 m/s 757 mmHg 69%
    12:00 +18°C° 0 mm 7 m/s 758 mmHg 65%
    13:00 +18°C° 0 mm 7 m/s 757 mmHg 67%
    14:00 +19°C° 0 mm 6 m/s 757 mmHg 69%
    15:00 +19°C° 0 mm 5 m/s 757 mmHg 71%
    16:00 +17°C° 0,1 mm 5 m/s 757 mmHg 76%
    17:00 +17°C° 0,1 mm 4 m/s 757 mmHg 80%
    18:00 +17°C° 0,1 mm 4 m/s 757 mmHg 85%
    19:00 +16°C° 0 mm 5 m/s 757 mmHg 83%
    20:00 +16°C° 0 mm 6 m/s 757 mmHg 81%
    21:00 +17°C° 0 mm 6 m/s 756 mmHg 79%
    22:00 +17°C° 0,3 mm 7 m/s 756 mmHg 79%
    23:00 +16°C° 0,3 mm 7 m/s 756 mmHg 79%

    21 Octombrie, Sâmbătă

    Timp Temperatura Precipitaţii Vânt Presiune Umiditate
    00:00 +16°C° 0,3 mm 8 m/s 755 mmHg 78%
    01:00 +16°C° 1 mm 8 m/s 755 mmHg 80%
    02:00 +16°C° 1 mm 8 m/s 755 mmHg 81%
    03:00 +16°C° 1 mm 9 m/s 754 mmHg 83%
    04:00 +16°C° 0,6 mm 8 m/s 754 mmHg 84%
    05:00 +16°C° 0,6 mm 8 m/s 754 mmHg 85%
    06:00 +16°C° 0,6 mm 7 m/s 755 mmHg 86%
    07:00 +15°C° 0,1 mm 8 m/s 755 mmHg 83%
    08:00 +15°C° 0,1 mm 8 m/s 755 mmHg 80%
    09:00 +15°C° 0,1 mm 9 m/s 755 mmHg 76%
    10:00 +14°C° 0 mm 10 m/s 755 mmHg 70%
    11:00 +16°C° 0 mm 11 m/s 756 mmHg 63%
    12:00 +15°C° 0 mm 12 m/s 756 mmHg 56%
    13:00 +16°C° 0,1 mm 11 m/s 756 mmHg 56%
    14:00 +16°C° 0,1 mm 11 m/s 756 mmHg 57%
    15:00 +14°C° 0,1 mm 11 m/s 755 mmHg 57%
    16:00 +13°C° 0,1 mm 11 m/s 756 mmHg 58%
    17:00 +13°C° 0,1 mm 11 m/s 756 mmHg 59%
    18:00 +12°C° 0,1 mm 10 m/s 756 mmHg 60%
    19:00 +12°C° 0,1 mm 11 m/s 756 mmHg 61%
    20:00 +11°C° 0,1 mm 11 m/s 757 mmHg 62%
    21:00 +11°C° 0,1 mm 11 m/s 757 mmHg 64%
    22:00 +11°C° 0,2 mm 11 m/s 757 mmHg 65%
    23:00 +9°C° 0,2 mm 11 m/s 757 mmHg 67%

    22 Octombrie, Duminică

    Timp Temperatura Precipitaţii Vânt Presiune Umiditate
    00:00 +9°C° 0,2 mm 10 m/s 758 mmHg 69%
    01:00 +9°C° 0,2 mm 10 m/s 758 mmHg 69%
    02:00 +9°C° 0,2 mm 10 m/s 758 mmHg 70%
    03:00 +9°C° 0,2 mm 10 m/s 758 mmHg 70%
    04:00 +10°C° 0,1 mm 9 m/s 758 mmHg 71%
    05:00 +8°C° 0,1 mm 9 m/s 759 mmHg 72%
    06:00 +8°C° 0,1 mm 9 m/s 759 mmHg 72%
    07:00 +10°C° 0 mm 9 m/s 760 mmHg 69%
    08:00 +10°C° 0 mm 9 m/s 760 mmHg 66%
    09:00 +11°C° 0 mm 10 m/s 761 mmHg 63%
    10:00 +11°C° 0 mm 9 m/s 761 mmHg 60%
    11:00 +12°C° 0 mm 9 m/s 762 mmHg 58%
    12:00 +12°C° 0 mm 9 m/s 762 mmHg 55%
    13:00 +12°C° 0,1 mm 9 m/s 762 mmHg 56%
    14:00 +12°C° 0,1 mm 8 m/s 763 mmHg 57%
    15:00 +11°C° 0,1 mm 8 m/s 763 mmHg 59%
    16:00 +11°C° 0,1 mm 7 m/s 763 mmHg 61%
    17:00 +10°C° 0,1 mm 7 m/s 764 mmHg 64%
    18:00 +9°C° 0,1 mm 6 m/s 764 mmHg 66%
    19:00 +9°C° 0 mm 6 m/s 764 mmHg 68%
    20:00 +8°C° 0 mm 6 m/s 765 mmHg 70%
    21:00 +8°C° 0 mm 6 m/s 765 mmHg 72%
    22:00 +8°C° 0 mm 6 m/s 765 mmHg 76%
    23:00 +8°C° 0 mm 6 m/s 765 mmHg 79%
    Arată mai mult